Regional Weather Roundup
Issued by NWS Little Rock, AR

Home | Current Version | Previous Version | Graphics & Text | Print | Product List | Glossary On
Versions: 1 2 3 4 5 6 7 8 9 10 11 12 13 14 15 16 17 18 19 20 21 22 23 24 25 26 27 28 29 30 31 32 33 34 35 36 37 38 39 40 41 42 43 44 45 46 47 48 49 50
000
ASUS44 KLZK 061905
RWRLZK

WEATHER ROUNDUP FOR ARKANSAS
NATIONAL WEATHER SERVICE LITTLE ROCK AR
200 PM CDT MON JUL 06 2015

NOTE: "FAIR" INDICATES FEW OR NO CLOUDS BELOW 12,000 FEET WITH NO
SIGNIFICANT WEATHER AND/OR OBSTRUCTIONS TO VISIBILITY.

ARZ001-003-010-029-062000-
NORTHWEST ARKANSAS

CITY           SKY/WX    TMP DP  RH WIND       PRES   REMARKS
FAYETTEVILLE   CLOUDY    81  73  76 S15       30.02F HX  86
FORT SMITH     CLOUDY    86  71  60 SW12G25   30.00F HX  91
HARRISON       CLOUDY    82  72  71 S9        30.04F HX  87
BENTONVILLE    CLOUDY    82  72  69 SW13      30.02F HX  87
ROGERS         CLOUDY    82  73  74 SW9       30.03F HX  87
SILOAM SPGS    CLOUDY    82  72  69 S12       30.03S HX  87
SPRINGDALE     CLOUDY    82  73  74 S17G24    30.04F HX  88
$$

ARZ004-005-016-062000-
NORTH CENTRAL ARKANSAS

CITY           SKY/WX    TMP DP  RH WIND       PRES   REMARKS
BATESVILLE     MOSUNNY   86  73  66 SE12      30.03F HX  93
FLIPPIN          N/A     84  70  61 S8G16     30.00F HX  88
MTN HOME       PTSUNNY   83  71  67 SW7       30.01F HX  87
$$

ARZ040-041-062000-
WEST CENTRAL ARKANSAS

CITY           SKY/WX    TMP DP  RH WIND       PRES   REMARKS
MENA           PTSUNNY   86  73  66 S8        30.06F HX  93
MOUNT IDA      MOSUNNY   83  75  77 W5        30.04F HX  90
$$

ARZ009-017-025-026-028-062000-
NORTHEAST ARKANSAS

CITY           SKY/WX    TMP DP  RH WIND       PRES   REMARKS
JONESBORO      PTSUNNY   84  74  71 SW14G24   30.04F HX  91
NEWPORT        CLOUDY    86  75  69 S15       30.04F HX  95
WALNUT RIDGE   PTSUNNY   84  73  70 S17       30.02F HX  91
BLYTHEVILLE    CLOUDY    83  76  79 S12       30.07F HX  91
NW BLYTHEVILLE CLOUDY    84  75  74 S14       30.07F HX  92
$$

ARZ022-023-033-042-044-062000-
CENTRAL ARKANSAS

CITY           SKY/WX    TMP DP  RH WIND       PRES   REMARKS
LITTLE ROCK    PTSUNNY   88  71  57 SW12      30.05F HX  94
N LITTLE ROCK  PTSUNNY   86  76  70 SW8G16    30.05F HX  96
JACKSONVILLE   MOSUNNY   88  73  61 S10       30.04F HX  95
SEARCY         PTSUNNY   87  76  69 S14       30.05F HX  97
HOT SPRINGS    PTSUNNY   86  72  62 SW9G20    30.06F HX  92
RUSSELLVILLE   PTSUNNY   86  73  65 SW7       30.02F HX  93
CLINTON        FAIR      84  75  74 S7        30.04F HX  92
$$

ARZ036-062000-
EAST ARKANSAS

CITY           SKY/WX    TMP DP  RH WIND       PRES   REMARKS
WEST MEMPHIS   PTSUNNY   83  76  79 S10       30.06F HX  91
$$

ARZ050-053-066-070-073-062000-
SOUTHWEST ARKANSAS

CITY           SKY/WX    TMP DP  RH WIND       PRES   REMARKS
ARKADELPHIA    FAIR      90  76  63 S12       30.06F HX 101
CAMDEN         MOSUNNY   91  72  52 MISG      30.06F HX  98
TEXARKANA      MOSUNNY   90  73  57 S12G23    30.05F HX  98
EL DORADO      MOSUNNY   88  73  61 S10       30.08F HX  95
DE QUEEN       PTSUNNY   85  73  67 S9        30.02F HX  91
$$

ARZ056-057-069-062000-
SOUTHEAST ARKANSAS

CITY           SKY/WX    TMP DP  RH WIND       PRES   REMARKS
PINE BLUFF     MOSUNNY   88  74  63 S12       30.07F HX  96
STUTTGART      PTSUNNY   84  73  70 MISG      30.06F HX  91
MONTICELLO     PTSUNNY   87  76  69 VRB7      30.09F HX  97

$$




USA.gov is the U.S. government's official web portal to all federal, state and local government web resources and services.